This is the latest recevied weather packets stored in our database for station/object W0SS-13. If no packets are shown the sender has not sent any weather packets the latest 10 day(s).
| Time | Temp. | Humidity | Pressure | Rain* | Wind** | Luminosity | Snow |
|---|---|---|---|---|---|---|---|
| 1777735024 | 12.22° C | 51% | 1023 hPa | 0 mm | - | 566 W/m² | - |
| 1777734721 | 12.22° C | 54% | 1023.1 hPa | 0 mm | - | 551 W/m² | - |
| 1777734418 | 11.67° C | 54% | 1023.1 hPa | 0 mm | - | 537 W/m² | - |
| 1777734114 | 12.22° C | 55% | 1023.1 hPa | 0 mm | - | 523 W/m² | - |
| 1777733811 | 11.67° C | 54% | 1023.1 hPa | 0 mm | - | 508 W/m² | - |
| 1777733508 | 11.67° C | 56% | 1023.2 hPa | 0 mm | - | 495 W/m² | - |
| 1777733204 | 11.11° C | 58% | 1023.1 hPa | 0 mm | - | 479 W/m² | - |
| 1777732901 | 11.11° C | 58% | 1022.8 hPa | 0 mm | - | 465 W/m² | - |
| 1777732597 | 10.56° C | 61% | 1023.1 hPa | 0 mm | - | 450 W/m² | - |
| 1777732295 | 10.56° C | 60% | 1023.2 hPa | 0 mm | - | 435 W/m² | - |
| 1777731992 | 10.56° C | 60% | 1023 hPa | 0 mm | - | 418 W/m² | - |
| 1777731689 | 10° C | 59% | 1023 hPa | 0 mm | - | 403 W/m² | - |
| 1777731386 | 10° C | 62% | 1022.8 hPa | 0 mm | - | 385 W/m² | - |
| 1777731084 | 10° C | 62% | 1022.6 hPa | 0 mm | - | 369 W/m² | - |
| 1777730782 | 9.44° C | 62% | 1022.8 hPa | 0 mm | - | 354 W/m² | - |
| 1777730478 | 8.89° C | 60% | 1022.9 hPa | 0 mm | - | 338 W/m² | - |
| 1777730175 | 8.89° C | 61% | 1022.7 hPa | 0 mm | - | 321 W/m² | - |
| 1777729872 | 8.89° C | 63% | 1022.9 hPa | 0 mm | - | 305 W/m² | - |
| 1777729568 | 8.33° C | 64% | 1022.9 hPa | 0 mm | - | 289 W/m² | - |
| 1777729264 | 8.33° C | 63% | 1022.8 hPa | 0 mm | - | 273 W/m² | - |
| 1777728962 | 8.33° C | 64% | 1022.9 hPa | 0 mm | - | 259 W/m² | - |
| 1777728658 | 8.33° C | 62% | 1023.1 hPa | 0 mm | - | 239 W/m² | - |
| 1777728355 | 7.78° C | 64% | 1022.7 hPa | 0 mm | - | 225 W/m² | - |
| 1777728052 | 7.78° C | 64% | 1022.8 hPa | 0 mm | - | 211 W/m² | - |
| 1777727749 | 7.78° C | 64% | 1022.8 hPa | 0 mm | - | 198 W/m² | - |
* Rain latest hour (hover to see other rain measurements)
** Current wind speed in m/s (hover to see current wind gust speed)